Voltar ao catálogo

COSMOS 2251 DEB

AtivoLEO
NORAD 34477·DEBRIS·🇷🇺 Russia

Lançado Jun 16, 1993 de Plesetsk Cosmodrome

Loading…

Próximas Passagens (próximas 24 horas)

TLE

AtualizadoSource: Space-Track

Época: Sep 14, 2026, 03:20 UTC

1 34477U 93036TW  26257.13909779  .00001869  00000-0  39624-3 0  9994
2 34477  73.9743 264.0056 0073238  23.3017  87.5868 14.58265776926383

Acompanhe COSMOS 2251 DEB em tempo real com AllMySat

Download on the App Store